RYR425M EHEH-LERS

Flight info

Callsign RYR425M
Flight time 1h 53m
Altitude 37000
Route WOODY N872 MEDIL/N0445F390 DCT KOVIN DCT DUCRA UM728 RESMI UN857 DISAK DCT DIRMO DCT VALKU DCT ATSUP DCT MINSO DCT DEGOL DCT PPG DCT ALBER P84 GIR
Aircraft B38M/M-SDE1FGHILORVWXY/HB1

Departure

Time 2026-04-27 16:59
Airport Eindhoven Airport (EHEH)

Arrival

Time 2026-04-27 18:53
Airport Reus Airport (LERS)
Time Latitude Longitude Altitude Speed Heading
2026-04-27 16:02 51.45727 5.38928 87 ft 0 kts 125°
2026-04-27 16:06 51.45727 5.38927 85 ft 0 kts 125°
2026-04-27 16:33 51.45727 5.38926 85 ft 0 kts 125°
2026-04-27 16:45 51.45737 5.38904 90 ft 4 kts 125°
2026-04-27 16:45 51.45750 5.38876 90 ft 2 kts 126°
2026-04-27 16:45 51.45762 5.38840 87 ft 4 kts 98°
2026-04-27 16:45 51.45757 5.38804 87 ft 4 kts 48°
2026-04-27 16:46 51.45748 5.38791 90 ft 1 kts 35°
2026-04-27 16:48 51.45751 5.38794 90 ft 2 kts 35°
2026-04-27 16:49 51.45812 5.38781 89 ft 5 kts 317°
2026-04-27 16:49 51.45836 5.38734 85 ft 5 kts 306°
2026-04-27 16:49 51.45839 5.38727 86 ft 0 kts 306°
2026-04-27 16:52 51.45840 5.38725 90 ft 1 kts 306°
2026-04-27 16:52 51.45857 5.38687 87 ft 9 kts 306°
2026-04-27 16:53 51.45919 5.38547 87 ft 20 kts 306°
2026-04-27 16:53 51.45996 5.38372 88 ft 15 kts 305°
2026-04-27 16:53 51.46005 5.38277 85 ft 8 kts 224°
2026-04-27 16:53 51.45954 5.38218 89 ft 10 kts 214°
2026-04-27 16:54 51.45888 5.38145 87 ft 13 kts 214°
2026-04-27 16:54 51.45809 5.38057 88 ft 15 kts 214°
2026-04-27 16:54 51.45718 5.37955 88 ft 17 kts 215°
2026-04-27 16:54 51.45614 5.37839 88 ft 19 kts 215°
2026-04-27 16:55 51.45500 5.37709 87 ft 21 kts 216°
2026-04-27 16:55 51.45374 5.37567 88 ft 23 kts 214°
2026-04-27 16:55 51.45236 5.37412 85 ft 25 kts 215°
2026-04-27 16:55 51.45087 5.37247 88 ft 27 kts 215°
2026-04-27 16:56 51.44929 5.37069 89 ft 29 kts 215°
2026-04-27 16:56 51.44761 5.36882 85 ft 30 kts 215°
2026-04-27 16:56 51.44603 5.36703 86 ft 26 kts 215°
2026-04-27 16:56 51.44450 5.36532 85 ft 28 kts 215°
2026-04-27 16:57 51.44292 5.36355 88 ft 28 kts 214°
2026-04-27 16:57 51.44150 5.36196 85 ft 19 kts 215°
2026-04-27 16:57 51.44062 5.36097 85 ft 15 kts 215°
2026-04-27 16:57 51.43973 5.36074 86 ft 14 kts 133°
2026-04-27 16:58 51.43932 5.36211 83 ft 12 kts 73°
2026-04-27 16:58 51.44014 5.36327 85 ft 29 kts 34°
2026-04-27 16:58 51.44388 5.36745 84 ft 99 kts 35°
2026-04-27 16:58 51.45114 5.37564 91 ft 153 kts 35°
2026-04-27 16:59 51.46018 5.38595 578 ft 165 kts 36°
2026-04-27 16:59 51.46941 5.39639 1360 ft 160 kts 36°
2026-04-27 16:59 51.47844 5.40687 2158 ft 160 kts 36°
2026-04-27 16:59 51.48760 5.41697 2977 ft 158 kts 34°
2026-04-27 17:00 51.50019 5.43088 3778 ft 176 kts 33°
2026-04-27 17:00 51.52109 5.44064 4480 ft 209 kts 343°
2026-04-27 17:00 51.53309 5.42809 5255 ft 213 kts 307°
2026-04-27 17:01 51.53781 5.40511 5742 ft 230 kts 268°
2026-04-27 17:01 51.53359 5.38008 6578 ft 232 kts 253°
2026-04-27 17:01 51.52910 5.35505 7506 ft 236 kts 257°
2026-04-27 17:01 51.52488 5.32928 8425 ft 240 kts 257°
2026-04-27 17:02 51.52063 5.30324 9369 ft 243 kts 257°
2026-04-27 17:02 51.51633 5.27679 10289 ft 246 kts 257°
2026-04-27 17:02 51.51198 5.25007 11111 ft 249 kts 257°
2026-04-27 17:02 51.50756 5.22290 11931 ft 253 kts 257°
2026-04-27 17:03 51.50423 5.19479 12569 ft 263 kts 272°
2026-04-27 17:03 51.50785 5.16518 13007 ft 280 kts 287°
2026-04-27 17:03 51.51305 5.13392 13408 ft 301 kts 285°
2026-04-27 17:03 51.51860 5.10051 13871 ft 317 kts 286°
2026-04-27 17:04 51.52445 5.06574 14453 ft 325 kts 286°
2026-04-27 17:04 51.53039 5.03061 15222 ft 328 kts 286°
2026-04-27 17:04 51.53640 4.99508 15957 ft 331 kts 286°
2026-04-27 17:04 51.54246 4.95923 16697 ft 334 kts 286°
2026-04-27 17:05 51.54856 4.92310 17412 ft 337 kts 286°
2026-04-27 17:05 51.55472 4.88658 18121 ft 340 kts 286°
2026-04-27 17:05 51.55765 4.84876 18749 ft 345 kts 268°
2026-04-27 17:05 51.55529 4.82346 19159 ft 348 kts 261°
2026-04-27 17:06 51.54890 4.77211 19888 ft 353 kts 261°
2026-04-27 17:06 51.54390 4.73337 20464 ft 355 kts 260°
2026-04-27 17:06 51.54050 4.70761 20844 ft 357 kts 260°
2026-04-27 17:06 51.53526 4.66852 21406 ft 360 kts 260°
2026-04-27 17:07 51.52991 4.62909 21955 ft 363 kts 259°
2026-04-27 17:07 51.52449 4.58938 22509 ft 365 kts 259°
2026-04-27 17:07 51.51901 4.54943 23065 ft 368 kts 259°
2026-04-27 17:07 51.51133 4.49608 23783 ft 373 kts 254°
2026-04-27 17:08 51.50428 4.47020 24098 ft 378 kts 242°
2026-04-27 17:08 51.48753 4.43745 24580 ft 385 kts 224°
2026-04-27 17:08 51.46494 4.41369 25055 ft 393 kts 210°
2026-04-27 17:08 51.44040 4.39411 25505 ft 395 kts 210°
2026-04-27 17:09 51.41560 4.37458 25942 ft 398 kts 210°
2026-04-27 17:09 51.39062 4.35522 26386 ft 401 kts 210°
2026-04-27 17:09 51.36537 4.33588 26819 ft 403 kts 210°
2026-04-27 17:09 51.34000 4.31655 27255 ft 405 kts 210°
2026-04-27 17:10 51.31443 4.29711 27663 ft 408 kts 210°
2026-04-27 17:10 51.28861 4.27748 28081 ft 410 kts 210°
2026-04-27 17:10 51.26285 4.25793 28485 ft 413 kts 210°
2026-04-27 17:10 51.23688 4.23824 28899 ft 415 kts 210°
2026-04-27 17:11 51.21074 4.21845 29303 ft 417 kts 210°
2026-04-27 17:11 51.15752 4.18008 30062 ft 425 kts 202°
2026-04-27 17:11 51.12926 4.16566 30453 ft 426 kts 203°
2026-04-27 17:12 51.07290 4.13489 31048 ft 430 kts 204°
2026-04-27 17:12 51.04454 4.11916 31372 ft 432 kts 204°
2026-04-27 17:12 51.01619 4.10341 31679 ft 433 kts 204°
2026-04-27 17:13 50.98762 4.08754 31980 ft 435 kts 204°
2026-04-27 17:13 50.95939 4.07188 32283 ft 437 kts 204°
2026-04-27 17:13 50.93059 4.05592 32589 ft 439 kts 204°
2026-04-27 17:13 50.90172 4.03994 32886 ft 440 kts 204°
2026-04-27 17:14 50.87303 4.02287 33155 ft 440 kts 207°
2026-04-27 17:14 50.84460 4.00434 33425 ft 443 kts 207°
2026-04-27 17:14 50.81599 3.98598 33726 ft 444 kts 206°
2026-04-27 17:14 50.78734 3.96774 34100 ft 444 kts 206°
2026-04-27 17:15 50.75874 3.94959 34448 ft 443 kts 206°
2026-04-27 17:15 50.73012 3.93145 34757 ft 443 kts 206°
2026-04-27 17:15 50.70152 3.91334 35064 ft 443 kts 206°
2026-04-27 17:15 50.67297 3.89530 35368 ft 442 kts 206°
2026-04-27 17:16 50.64437 3.87725 35645 ft 442 kts 206°
2026-04-27 17:16 50.61583 3.85925 35926 ft 442 kts 206°
2026-04-27 17:16 50.58723 3.84124 36213 ft 442 kts 206°
2026-04-27 17:16 50.55906 3.82220 36485 ft 441 kts 208°
2026-04-27 17:17 50.53095 3.80289 36739 ft 441 kts 207°
2026-04-27 17:17 50.50277 3.78370 36987 ft 441 kts 207°
2026-04-27 17:17 50.47464 3.76460 37186 ft 442 kts 207°
2026-04-27 17:18 50.39025 3.70748 37192 ft 439 kts 207°
2026-04-27 17:18 50.33409 3.66953 37188 ft 439 kts 207°
2026-04-27 17:19 50.27804 3.63164 37182 ft 439 kts 207°
2026-04-27 17:19 50.22191 3.59381 37181 ft 439 kts 207°
2026-04-27 17:20 50.16589 3.55613 37180 ft 439 kts 207°
2026-04-27 17:20 50.10981 3.51851 37174 ft 438 kts 207°
2026-04-27 17:21 50.05377 3.48103 37175 ft 438 kts 207°
2026-04-27 17:21 49.99809 3.44388 37169 ft 438 kts 207°
2026-04-27 17:22 49.94205 3.40657 37169 ft 438 kts 207°
2026-04-27 17:22 49.88605 3.36939 37164 ft 438 kts 207°
2026-04-27 17:23 49.83001 3.33228 37163 ft 438 kts 207°
2026-04-27 17:23 49.77399 3.29527 37164 ft 437 kts 207°
2026-04-27 17:24 49.71800 3.25839 37162 ft 437 kts 207°
2026-04-27 17:24 49.66201 3.22158 37161 ft 437 kts 207°
2026-04-27 17:25 49.60612 3.18494 37159 ft 437 kts 207°
2026-04-27 17:25 49.55020 3.14836 37157 ft 436 kts 207°
2026-04-27 17:26 49.49435 3.11183 37153 ft 436 kts 208°
2026-04-27 17:26 49.44362 3.06315 37141 ft 430 kts 217°
2026-04-27 17:27 49.39365 3.01259 37151 ft 430 kts 217°
2026-04-27 17:27 49.34378 2.96206 37151 ft 429 kts 217°
2026-04-27 17:28 49.29393 2.91166 37146 ft 429 kts 217°
2026-04-27 17:29 49.21924 2.83637 37154 ft 428 kts 217°
2026-04-27 17:29 49.16946 2.78633 37162 ft 428 kts 217°
2026-04-27 17:30 49.11970 2.73646 37166 ft 428 kts 217°
2026-04-27 17:30 49.04508 2.66187 37161 ft 427 kts 217°
2026-04-27 17:31 48.99539 2.61235 37161 ft 427 kts 217°
2026-04-27 17:31 48.94563 2.56289 37150 ft 427 kts 217°
2026-04-27 17:32 48.87105 2.48898 37157 ft 426 kts 216°
2026-04-27 17:33 48.82136 2.43988 37151 ft 426 kts 216°
2026-04-27 17:33 48.77169 2.39092 37160 ft 426 kts 216°
2026-04-27 17:34 48.72200 2.34205 37159 ft 426 kts 216°
2026-04-27 17:34 48.67229 2.29328 37151 ft 426 kts 216°
2026-04-27 17:35 48.62258 2.24463 37150 ft 425 kts 216°
2026-04-27 17:35 48.57254 2.19817 37141 ft 429 kts 206°
2026-04-27 17:36 48.51404 2.17518 37136 ft 434 kts 197°
2026-04-27 17:36 48.45541 2.15546 37141 ft 434 kts 196°
2026-04-27 17:37 48.39639 2.13633 37125 ft 434 kts 196°
2026-04-27 17:37 48.33731 2.11732 37138 ft 434 kts 196°
2026-04-27 17:38 48.27770 2.10344 37123 ft 440 kts 180°
2026-04-27 17:38 48.21657 2.11471 37132 ft 444 kts 176°
2026-04-27 17:39 48.15534 2.12710 37127 ft 444 kts 176°
2026-04-27 17:39 48.09409 2.13380 37136 ft 441 kts 181°
2026-04-27 17:40 48.03279 2.13759 37128 ft 440 kts 182°
2026-04-27 17:40 47.97154 2.14121 37132 ft 440 kts 182°
2026-04-27 17:41 47.91033 2.14481 37126 ft 440 kts 182°
2026-04-27 17:41 47.84914 2.14839 37129 ft 440 kts 182°
2026-04-27 17:42 47.78799 2.15196 37126 ft 440 kts 182°
2026-04-27 17:42 47.72683 2.15553 37124 ft 440 kts 182°
2026-04-27 17:43 47.66571 2.15908 37121 ft 440 kts 182°
2026-04-27 17:43 47.60458 2.16263 37118 ft 439 kts 182°
2026-04-27 17:44 47.54351 2.16617 37113 ft 439 kts 182°
2026-04-27 17:44 47.48242 2.16970 37112 ft 439 kts 182°
2026-04-27 17:45 47.42137 2.17322 37108 ft 439 kts 182°
2026-04-27 17:45 47.36031 2.17673 37107 ft 439 kts 182°
2026-04-27 17:46 47.29930 2.18023 37105 ft 439 kts 182°
2026-04-27 17:46 47.23831 2.18372 37103 ft 439 kts 182°
2026-04-27 17:47 47.17732 2.18720 37101 ft 439 kts 182°
2026-04-27 17:47 47.11670 2.19066 37102 ft 439 kts 182°
2026-04-27 17:47 47.08631 2.19643 37079 ft 445 kts 168°
2026-04-27 17:48 47.05717 2.21231 37107 ft 449 kts 163°
2026-04-27 17:48 46.99879 2.24535 37098 ft 450 kts 163°
2026-04-27 17:49 46.94055 2.27911 37121 ft 450 kts 163°
2026-04-27 17:49 46.88266 2.31278 37094 ft 446 kts 163°
2026-04-27 17:50 46.82494 2.34630 37094 ft 447 kts 163°
2026-04-27 17:50 46.73821 2.39652 37094 ft 447 kts 163°
2026-04-27 17:51 46.68041 2.42989 37091 ft 447 kts 163°
2026-04-27 17:51 46.62260 2.46319 37085 ft 447 kts 163°
2026-04-27 17:52 46.56482 2.49639 37086 ft 447 kts 163°
2026-04-27 17:52 46.51676 2.52395 37084 ft 447 kts 163°
2026-04-27 17:53 46.45898 2.55702 37083 ft 446 kts 163°
2026-04-27 17:53 46.40121 2.59001 37089 ft 446 kts 163°
2026-04-27 17:54 46.34340 2.62294 37094 ft 446 kts 163°
2026-04-27 17:54 46.28563 2.65577 37085 ft 446 kts 163°
2026-04-27 17:55 46.22788 2.68852 37083 ft 446 kts 163°
2026-04-27 17:55 46.17004 2.72124 37085 ft 447 kts 163°
2026-04-27 17:56 46.11221 2.75390 37083 ft 447 kts 163°
2026-04-27 17:56 46.05430 2.78652 37083 ft 447 kts 163°
2026-04-27 17:57 45.99633 2.81879 37083 ft 446 kts 165°
2026-04-27 17:57 45.93807 2.84953 37088 ft 446 kts 164°
2026-04-27 17:58 45.87982 2.88038 37081 ft 446 kts 164°
2026-04-27 17:58 45.82159 2.91117 37081 ft 446 kts 164°
2026-04-27 17:59 45.76331 2.94180 37071 ft 445 kts 166°
2026-04-27 17:59 45.73340 2.95020 37063 ft 433 kts 183°
2026-04-27 17:59 45.70339 2.95022 37077 ft 433 kts 184°
2026-04-27 18:00 45.64308 2.94978 37083 ft 433 kts 185°
2026-04-27 18:00 45.58281 2.94842 37077 ft 433 kts 186°
2026-04-27 18:01 45.52253 2.94684 37073 ft 433 kts 185°
2026-04-27 18:01 45.46220 2.94525 37083 ft 434 kts 186°
2026-04-27 18:02 45.40192 2.94366 37079 ft 434 kts 186°
2026-04-27 18:02 45.34192 2.94208 37073 ft 434 kts 186°
2026-04-27 18:03 45.28156 2.94050 37069 ft 433 kts 186°
2026-04-27 18:03 45.22129 2.93892 37076 ft 433 kts 186°
2026-04-27 18:04 45.16103 2.93734 37066 ft 433 kts 185°
2026-04-27 18:04 45.10031 2.93576 37076 ft 434 kts 185°
2026-04-27 18:05 45.03997 2.93419 37071 ft 434 kts 185°
2026-04-27 18:05 44.97960 2.93262 37072 ft 434 kts 185°
2026-04-27 18:06 44.91957 2.93107 37086 ft 435 kts 185°
2026-04-27 18:06 44.85905 2.92947 37087 ft 434 kts 186°
2026-04-27 18:07 44.79835 2.92486 37088 ft 434 kts 187°
2026-04-27 18:07 44.73843 2.92047 37089 ft 434 kts 187°
2026-04-27 18:08 44.67813 2.91611 37084 ft 434 kts 187°
2026-04-27 18:08 44.61769 2.91175 37090 ft 435 kts 187°
2026-04-27 18:09 44.55727 2.90739 37089 ft 435 kts 187°
2026-04-27 18:09 44.49678 2.90304 37086 ft 435 kts 186°
2026-04-27 18:10 44.43627 2.89870 37093 ft 435 kts 187°
2026-04-27 18:10 44.37578 2.89436 37094 ft 436 kts 187°
2026-04-27 18:11 44.31523 2.89004 37096 ft 436 kts 187°
2026-04-27 18:11 44.25463 2.88572 37099 ft 436 kts 187°
2026-04-27 18:12 44.19402 2.88140 37093 ft 436 kts 187°
2026-04-27 18:12 44.13336 2.87709 37095 ft 437 kts 187°
2026-04-27 18:13 44.07264 2.87279 37090 ft 437 kts 186°
2026-04-27 18:13 44.01186 2.86849 37096 ft 437 kts 186°
2026-04-27 18:14 43.95109 2.86420 37092 ft 437 kts 186°
2026-04-27 18:14 43.89029 2.85991 37103 ft 438 kts 186°
2026-04-27 18:15 43.82937 2.85563 37098 ft 438 kts 186°
2026-04-27 18:15 43.76836 2.85306 37089 ft 440 kts 182°
2026-04-27 18:16 43.70707 2.85448 37087 ft 440 kts 182°
2026-04-27 18:16 43.64570 2.85537 37093 ft 441 kts 182°
2026-04-27 18:17 43.58435 2.85620 37087 ft 441 kts 182°
2026-04-27 18:17 43.52290 2.85701 37093 ft 442 kts 182°
2026-04-27 18:18 43.46139 2.85782 37102 ft 443 kts 182°
2026-04-27 18:18 43.40029 2.85863 37084 ft 442 kts 182°
2026-04-27 18:19 43.33870 2.85944 37086 ft 442 kts 182°
2026-04-27 18:19 43.27709 2.86025 37085 ft 443 kts 182°
2026-04-27 18:20 43.21553 2.86106 37075 ft 443 kts 182°
2026-04-27 18:20 43.15391 2.86187 37076 ft 443 kts 182°
2026-04-27 18:21 43.09591 2.86262 37079 ft 443 kts 182°
2026-04-27 18:21 43.03426 2.86344 37076 ft 443 kts 182°
2026-04-27 18:22 42.97256 2.86424 37075 ft 443 kts 182°
2026-04-27 18:22 42.91088 2.86504 37067 ft 443 kts 182°
2026-04-27 18:23 42.84909 2.86584 37077 ft 444 kts 182°
2026-04-27 18:23 42.78732 2.86664 37078 ft 445 kts 182°
2026-04-27 18:24 42.72597 2.86310 37087 ft 435 kts 188°
2026-04-27 18:24 42.66634 2.85588 37083 ft 428 kts 187°
2026-04-27 18:25 42.60712 2.84928 37074 ft 427 kts 187°
2026-04-27 18:25 42.54789 2.84277 37073 ft 427 kts 187°
2026-04-27 18:26 42.48897 2.83632 37077 ft 428 kts 187°
2026-04-27 18:26 42.42974 2.82957 37068 ft 427 kts 187°
2026-04-27 18:27 42.37052 2.82267 37072 ft 427 kts 187°
2026-04-27 18:27 42.31135 2.81578 37045 ft 426 kts 187°
2026-04-27 18:28 42.28188 2.81214 36348 ft 425 kts 190°
2026-04-27 18:28 42.25361 2.80158 35267 ft 422 kts 209°
2026-04-27 18:28 42.22977 2.77877 34156 ft 422 kts 226°
2026-04-27 18:28 42.21070 2.74883 33133 ft 420 kts 236°
2026-04-27 18:29 42.19615 2.71461 31807 ft 425 kts 248°
2026-04-27 18:29 42.18660 2.67663 30500 ft 431 kts 252°
2026-04-27 18:29 42.17728 2.63823 29424 ft 429 kts 252°
2026-04-27 18:29 42.16801 2.60035 28469 ft 423 kts 252°
2026-04-27 18:30 42.15888 2.56300 27593 ft 416 kts 252°
2026-04-27 18:30 42.14987 2.52620 26740 ft 410 kts 251°
2026-04-27 18:30 42.14099 2.48995 25914 ft 405 kts 251°
2026-04-27 18:30 42.13220 2.45415 25116 ft 399 kts 251°
2026-04-27 18:31 42.12353 2.41886 24350 ft 394 kts 251°
2026-04-27 18:31 42.11497 2.38410 23582 ft 389 kts 251°
2026-04-27 18:31 42.10650 2.34971 22837 ft 382 kts 251°
2026-04-27 18:31 42.09826 2.31635 22322 ft 370 kts 251°
2026-04-27 18:32 42.09024 2.28391 21836 ft 359 kts 251°
2026-04-27 18:32 42.08245 2.25245 21337 ft 350 kts 251°
2026-04-27 18:32 42.07484 2.22175 20878 ft 341 kts 251°
2026-04-27 18:32 42.06753 2.19228 20495 ft 331 kts 251°
2026-04-27 18:33 42.06025 2.16302 20148 ft 323 kts 251°
2026-04-27 18:33 42.05323 2.13481 19796 ft 321 kts 251°
2026-04-27 18:33 42.04616 2.10642 19459 ft 320 kts 251°
2026-04-27 18:33 42.03910 2.07814 19118 ft 318 kts 251°
2026-04-27 18:34 42.03208 2.05000 18783 ft 316 kts 251°
2026-04-27 18:34 42.02509 2.02207 18448 ft 315 kts 251°
2026-04-27 18:34 42.01811 1.99418 18070 ft 314 kts 251°
2026-04-27 18:34 42.01117 1.96650 17715 ft 311 kts 251°
2026-04-27 18:35 42.00427 1.93900 17372 ft 309 kts 251°
2026-04-27 18:35 41.99743 1.91178 17048 ft 306 kts 251°
2026-04-27 18:35 41.99064 1.88477 16722 ft 304 kts 251°
2026-04-27 18:35 41.98389 1.85797 16391 ft 302 kts 251°
2026-04-27 18:36 41.97719 1.83139 16065 ft 299 kts 251°
2026-04-27 18:36 41.97052 1.80498 15755 ft 297 kts 251°
2026-04-27 18:36 41.96330 1.77914 15403 ft 296 kts 241°
2026-04-27 18:36 41.95018 1.75811 15084 ft 294 kts 219°
2026-04-27 18:37 41.93396 1.74161 14792 ft 292 kts 217°
2026-04-27 18:37 41.91767 1.72540 14489 ft 290 kts 217°
2026-04-27 18:37 41.90141 1.70950 14181 ft 289 kts 217°
2026-04-27 18:37 41.88516 1.69376 13873 ft 288 kts 217°
2026-04-27 18:38 41.86890 1.67814 13535 ft 286 kts 216°
2026-04-27 18:38 41.85276 1.66271 13201 ft 284 kts 216°
2026-04-27 18:38 41.83670 1.64739 12892 ft 282 kts 216°
2026-04-27 18:38 41.82079 1.63224 12592 ft 280 kts 216°
2026-04-27 18:39 41.81032 1.62228 12398 ft 278 kts 216°
2026-04-27 18:39 41.79459 1.60732 12102 ft 276 kts 216°
2026-04-27 18:39 41.77899 1.59250 11814 ft 274 kts 216°
2026-04-27 18:39 41.76350 1.57779 11516 ft 272 kts 216°
2026-04-27 18:40 41.74807 1.56315 11184 ft 272 kts 216°
2026-04-27 18:40 41.73175 1.55053 10867 ft 273 kts 198°
2026-04-27 18:40 41.71309 1.54492 10627 ft 277 kts 193°
2026-04-27 18:40 41.69405 1.53973 10401 ft 280 kts 192°
2026-04-27 18:41 41.67496 1.53466 10164 ft 280 kts 192°
2026-04-27 18:41 41.65589 1.52969 9919 ft 280 kts 192°
2026-04-27 18:41 41.63677 1.52477 9652 ft 279 kts 192°
2026-04-27 18:41 41.61774 1.51990 9390 ft 278 kts 192°
2026-04-27 18:42 41.59878 1.51508 9150 ft 277 kts 191°
2026-04-27 18:42 41.58625 1.51188 8991 ft 276 kts 191°
2026-04-27 18:42 41.56104 1.50547 8664 ft 275 kts 191°
2026-04-27 18:42 41.54209 1.50330 8390 ft 275 kts 174°
2026-04-27 18:43 41.52334 1.50738 8161 ft 271 kts 171°
2026-04-27 18:43 41.50484 1.51143 7935 ft 270 kts 171°
2026-04-27 18:43 41.48626 1.51555 7708 ft 270 kts 171°
2026-04-27 18:43 41.46769 1.51970 7479 ft 270 kts 170°
2026-04-27 18:44 41.44914 1.52384 7244 ft 270 kts 170°
2026-04-27 18:44 41.43062 1.52800 7008 ft 270 kts 170°
2026-04-27 18:44 41.41218 1.53213 6769 ft 268 kts 170°
2026-04-27 18:44 41.39392 1.53622 6536 ft 264 kts 169°
2026-04-27 18:45 41.37590 1.54025 6295 ft 260 kts 169°
2026-04-27 18:45 41.35817 1.54423 6074 ft 256 kts 169°
2026-04-27 18:45 41.34087 1.54444 5844 ft 253 kts 194°
2026-04-27 18:45 41.32481 1.53530 5624 ft 249 kts 205°
2026-04-27 18:46 41.30905 1.52531 5392 ft 246 kts 204°
2026-04-27 18:46 41.29395 1.51576 5186 ft 242 kts 204°
2026-04-27 18:46 41.27874 1.50611 4993 ft 236 kts 204°
2026-04-27 18:46 41.26407 1.49678 4780 ft 232 kts 204°
2026-04-27 18:47 41.24981 1.48770 4559 ft 229 kts 205°
2026-04-27 18:47 41.23784 1.47455 4325 ft 223 kts 234°
2026-04-27 18:47 41.23098 1.45653 4112 ft 215 kts 247°
2026-04-27 18:47 41.22582 1.43830 3891 ft 207 kts 248°
2026-04-27 18:48 41.22083 1.42066 3683 ft 200 kts 248°
2026-04-27 18:48 41.21596 1.40365 3494 ft 195 kts 248°
2026-04-27 18:48 41.21111 1.38685 3319 ft 194 kts 247°
2026-04-27 18:48 41.20628 1.37014 3109 ft 194 kts 247°
2026-04-27 18:49 41.20145 1.35348 2886 ft 193 kts 247°
2026-04-27 18:49 41.19664 1.33686 2643 ft 192 kts 248°
2026-04-27 18:49 41.19186 1.32039 2412 ft 191 kts 248°
2026-04-27 18:49 41.18710 1.30396 2158 ft 190 kts 248°
2026-04-27 18:50 41.18237 1.28767 1910 ft 189 kts 248°
2026-04-27 18:50 41.17767 1.27147 1658 ft 187 kts 248°
2026-04-27 18:50 41.17310 1.25571 1435 ft 174 kts 248°
2026-04-27 18:50 41.16895 1.24141 1203 ft 158 kts 248°
2026-04-27 18:51 41.16513 1.22823 999 ft 150 kts 248°
2026-04-27 18:51 41.16143 1.21548 753 ft 148 kts 248°
2026-04-27 18:51 41.15781 1.20275 584 ft 147 kts 247°
2026-04-27 18:51 41.15409 1.19021 393 ft 146 kts 248°
2026-04-27 18:52 41.15052 1.17779 245 ft 134 kts 248°
2026-04-27 18:52 41.14815 1.16979 245 ft 59 kts 249°
2026-04-27 18:52 41.14658 1.16440 245 ft 60 kts 249°
2026-04-27 18:53 41.14525 1.15980 245 ft 11 kts 252°
2026-04-27 18:53 41.14565 1.15902 245 ft 12 kts 338°
2026-04-27 18:53 41.14606 1.15881 245 ft 0 kts 339°
2026-04-27 18:55 41.14610 1.15879 245 ft 2 kts 339°
2026-04-27 18:55 41.14633 1.15869 245 ft 5 kts 351°
2026-04-27 18:55 41.14662 1.15880 245 ft 4 kts 29°
2026-04-27 18:56 41.14699 1.15898 245 ft 8 kts 360°
2026-04-27 18:56 41.14737 1.15882 245 ft 4 kts 339°
2026-04-27 18:56 41.14755 1.15873 245 ft 1 kts 339°
2026-04-27 18:56 41.14755 1.15872 245 ft 0 kts 339°